Index of /truelala/VA - 100 Greatest Male Voices (2020)/
../
001 David Bowie - Heroes (2017 Remaster).mp3 05-May-2026 19:36 14898256
002 Stevie Wonder - Sir Duke.mp3 05-May-2026 19:36 9351493
003 Prince - Purple Rain.mp3 05-May-2026 19:36 20872940
004 Michael Jackson - Human Nature.mp3 05-May-2026 19:36 9882741
005 George Michael - Careless Whisper.mp3 05-May-2026 19:36 12045684
006 Marvin Gaye - What's Going On.mp3 05-May-2026 19:36 9345290
007 Otis Redding - Try A Little Tenderness.mp3 05-May-2026 19:36 8110604
008 Queen - We Are The Champions (Remastered 2..> 05-May-2026 19:36 7518149
009 Elvis Presley - Always On My Mind.mp3 05-May-2026 19:36 8779331
010 John Lennon - Imagine (2010 Mix).mp3 05-May-2026 19:36 7555412
011 Lou Reed - Satellite Of Love.mp3 05-May-2026 19:36 8837825
012 Al Green - Let's Stay Together.mp3 05-May-2026 19:36 8017237
013 Elton John - Your Song.mp3 05-May-2026 19:36 9712397
014 Justin Timberlake - Cry Me A River.mp3 05-May-2026 19:36 11574443
015 Ed Sheeran - Thinking Out Loud.mp3 05-May-2026 19:36 11303793
016 Bruno Mars - When I Was Your Man.mp3 05-May-2026 19:36 8594376
017 Sam Smith - Stay With Me.mp3 05-May-2026 19:36 6950394
018 Simon & Garfunkel - Bridge Over Troubled W..> 05-May-2026 19:36 11765683
019 Phil Collins - In The Air Tonight (2015 Re..> 05-May-2026 19:36 13499169
020 The Rolling Stones - Sympathy For The Devi..> 05-May-2026 19:36 15150777
021 Bruce Springsteen - Thunder Road.mp3 05-May-2026 19:36 11561900
022 Leonard Cohen - Suzanne.mp3 05-May-2026 19:36 9132487
023 Van Morrison - Brown Eyed Girl.mp3 05-May-2026 19:36 7381250
024 Smokey Robinson & The Miracles - The Tears..> 05-May-2026 19:36 7419571
025 Paul Mccartney - Maybe I'm Amazed.mp3 05-May-2026 19:36 9303872
026 Frankie Valli & The Four Seasons - Sherry.mp3 05-May-2026 19:36 6127434
027 Johnny Cash - Ring Of Fire.mp3 05-May-2026 19:36 6269468
028 Bee Gees - Stayin' Alive.mp3 05-May-2026 19:36 3756240
029 Chuck Berry - Johnny B Goode.mp3 05-May-2026 19:36 6449818
030 Joe Cocker - You Are So Beautiful.mp3 05-May-2026 19:36 6564750
031 Rod Stewart - Sailing.mp3 05-May-2026 19:36 11120919
032 Nat King Cole - L-O-V-E.mp3 05-May-2026 19:36 6253381
033 Roy Orbison - Crying.mp3 05-May-2026 19:36 6698910
034 Bob Marley & The Wailers - Could You Be Lo..> 05-May-2026 19:36 9521255
035 Bob Dylan - Lay, Lady, Lay.mp3 05-May-2026 19:36 7923539
036 Willie Nelson - Remember Me (When The Cand..> 05-May-2026 19:36 6864097
037 Little Richard - Tutti Frutti.mp3 05-May-2026 19:36 5843795
038 John Legend - Ordinary People.mp3 05-May-2026 19:36 11299613
039 Billy Joel - Uptown Girl.mp3 05-May-2026 19:36 7948614
040 Michael Bolton - When A Man Loves A Woman.mp3 05-May-2026 19:36 9261047
041 D'angelo - Brown Sugar.mp3 05-May-2026 19:36 10556671
042 Frank Ocean - Solo.mp3 05-May-2026 19:36 10336195
043 Tom Waits - Ol' 55.mp3 05-May-2026 19:36 9500273
044 Jeff Buckley - Hallelujah.mp3 05-May-2026 19:36 16597203
045 Radiohead - Fake Plastic Trees.mp3 05-May-2026 19:36 11669505
046 Michael Bublé - Home.mp3 05-May-2026 19:36 9102179
047 Sam Cooke - A Change Is Gonna Come.mp3 05-May-2026 19:36 7687407
048 James Brown - Papa's Got A Brand New Bag (..> 05-May-2026 19:36 6421667
049 Ben E. King - Stand By Me.mp3 05-May-2026 19:36 7032881
050 John Martyn - May You Never.mp3 05-May-2026 19:36 8896344
051 Robert Palmer - Simply Irresistible.mp3 05-May-2026 19:36 10212935
052 Tom Jones - Delilah.mp3 05-May-2026 19:36 8304911
053 Aerosmith - I Don't Want To Miss A Thing (..> 05-May-2026 19:36 11991441
054 Louis Armstrong - What A Wonderful World.mp3 05-May-2026 19:36 5634820
055 Frank Sinatra - Come Fly With Me.mp3 05-May-2026 19:36 7987296
056 Tony Bennett - I Left My Heart In San Fran..> 05-May-2026 19:36 6912690
057 The Doors - Break On Through (To The Other..> 05-May-2026 19:36 5921557
058 The Beach Boys - God Only Knows (Remastere..> 05-May-2026 19:36 6780020
059 Bryan Adams - Summer Of '69.mp3 05-May-2026 19:36 8683185
060 Guns N' Roses - Sweet Child O' Mine.mp3 05-May-2026 19:36 14283428
061 Iggy Pop - The Passenger.mp3 05-May-2026 19:36 11375875
062 The Temptations - My Girl.mp3 05-May-2026 19:36 6656086
063 Don Mclean - American Pie.mp3 05-May-2026 19:36 20561579
064 Eagles - Hotel California (2013 Remaster).mp3 05-May-2026 19:36 15696558
065 Led Zeppelin - Whole Lotta Love (2012 Rema..> 05-May-2026 19:36 13423929
066 Jimi Hendrix - The Wind Cries Mary.mp3 05-May-2026 19:36 8060442
067 B.B. King Edward Rowe Joseph Burton Bob..> 05-May-2026 19:36 10767221
068 Rag'n'bone Man - Skin.mp3 05-May-2026 19:36 9626721
069 Morrissey - Suedehead (2010 Remaster).mp3 05-May-2026 19:36 8940245
070 The Band - The Night They Drove Old Dixie ..> 05-May-2026 19:36 8572081
072 Solomon Burke - Everybody Needs Somebody T..> 05-May-2026 19:36 6688520
073 Seal - Kiss From A Rose.mp3 05-May-2026 19:36 11568126
073 The Everly Brothers - All I Have To Do Is ..> 05-May-2026 19:36 5773913
074 John Lee Hooker - Boom Boom.mp3 05-May-2026 19:36 6463415
075 Sly & The Family Stone - Everyday People.mp3 05-May-2026 19:36 5691690
076 James Taylor - You've Got A Friend.mp3 05-May-2026 19:36 10789715
077 Wilson Pickett - In The Midnight Hour.mp3 05-May-2026 19:36 6328011
078 Jerry Lee Lewis - Great Balls Of Fire.mp3 05-May-2026 19:36 4549142
079 The Who - I Can See For Miles (Mono Versio..> 05-May-2026 19:36 9863698
080 The Animals - House Of The Rising Sun.mp3 05-May-2026 19:36 10892119
081 Free - All Right Now.mp3 05-May-2026 19:36 13358030
082 Luther Vandross - Never Too Much.mp3 05-May-2026 19:36 9259986
084 Buddy Holly - Not Fade Away.mp3 05-May-2026 19:36 5753888
085 Muddy Waters - Mannish Boy.mp3 05-May-2026 19:36 7128928
085 Nirvana - All Apologies (Album Version).mp3 05-May-2026 19:36 9368703
086 Curtis Mayfield The Impressions - People ..> 05-May-2026 19:36 6413681
087 Crosby, Stills, Nash & Young - Ohio (Live)..> 05-May-2026 19:36 8601555
088 Peter Gabriel - Solsbury Hill.mp3 05-May-2026 19:36 10498817
089 U2 - Pride (In The Name Of Love) (Remaster..> 05-May-2026 19:36 9178420
090 Howlin' Wolf - Smokestack Lightnin'.mp3 05-May-2026 19:36 7599244
091 Hank Williams - I'm So Lonesome I Could Cr..> 05-May-2026 19:36 6656664
092 Jackie Wilson - (Your Love Keeps Lifting M..> 05-May-2026 19:36 7205769
093 Ray Charles - I've Got A Woman.mp3 05-May-2026 19:36 6899550
094 Soundgarden - Black Hole Sun.mp3 05-May-2026 19:36 12784460
095 Pearl Jam - Alive.mp3 05-May-2026 19:36 13677773
096 Iron Maiden - Run To The Hills (2015 Remas..> 05-May-2026 19:36 9380784
097 Black Sabbath - Iron Man.mp3 05-May-2026 19:36 14232636
098 Bon Jovi - Always.mp3 05-May-2026 19:36 14162603
099 The Clash - Straight To Hell (Remastered).mp3 05-May-2026 19:36 13261951
100 ACDC - Thunderstruck.mp3 05-May-2026 19:36 11756207